Location: Chamerau
(49.1969°N, 12.7525°E)
Time: 15:45:57
(UTC+00:00)

MetOp-A - Pass Details

Date: 18 September 2020
Orbit: 820 x 821 km, 98.5° (Epoch: 24 October)

Event Time Altitude Azimuth Distance (km) Brightness Sun altitude
Exits shadow 18:22:25 - 142° (SE) 2,492 6.2 -11.7°
Reaches altitude 10° 18:22:37 10° 141° (SE) 2,414 6.1 -11.7°
Maximum altitude 18:27:46 50° 68° (ENE) 1,046 4.4 -12.5°
Drops below altitude 10° 18:32:55 10° 355° (N) 2,430 6.9 -13.3°
Sets 18:35:20 0° 350° (N) 3,367 7.7 -13.7°
